Time,TemperatureF,DewpointF,PressureIn,WindDirection,WindDirectionDegrees,WindSpeedMPH,WindSpeedGustMPH,Humidity,HourlyPrecipIn,Conditions,Clouds,dailyrainin,SoftwareType,DateUTC
2013-01-29 00:01:00,55.0,52.0,30.19,ESE,120,3.0,-999.0,90,-99.99,,,0.00,,2013-01-29 06:01:00,
2013-01-29 00:11:00,55.0,52.0,30.19,ESE,120,3.0,-999.0,90,-99.99,,,0.00,,2013-01-29 06:11:00,
2013-01-29 00:21:00,55.0,52.0,30.19,ESE,112,2.0,-999.0,90,-99.99,,,0.00,,2013-01-29 06:21:00,
2013-01-29 00:32:00,55.0,52.0,30.19,ESE,104,2.0,-999.0,90,-99.99,,,0.00,,2013-01-29 06:32:00,
2013-01-29 00:41:00,55.0,52.0,30.19,ESE,104,2.0,-999.0,90,-99.99,,,0.00,,2013-01-29 06:41:00,
2013-01-29 00:52:00,55.0,52.0,30.19,SE,128,3.0,-999.0,91,-99.99,,,0.00,,2013-01-29 06:52:00,
2013-01-29 01:01:00,55.0,52.0,30.19,ESE,110,3.0,-999.0,91,-99.99,,,0.00,,2013-01-29 07:01:00,
2013-01-29 01:11:00,55.0,52.0,30.19,ESE,110,3.0,-999.0,91,-99.99,,,0.00,,2013-01-29 07:11:00,
2013-01-29 01:21:00,55.0,52.0,30.19,East,101,2.0,-999.0,91,-99.99,,,0.00,,2013-01-29 07:21:00,
2013-01-29 01:31:00,55.0,52.0,30.19,SE,131,2.0,-999.0,91,-99.99,,,0.00,,2013-01-29 07:31:00,
2013-01-29 01:42:00,55.0,52.0,30.19,SE,131,2.0,-999.0,91,-99.99,,,0.00,,2013-01-29 07:42:00,
2013-01-29 01:52:00,55.0,52.0,30.19,ESE,116,3.0,-999.0,91,-99.99,,,0.00,,2013-01-29 07:52:00,
2013-01-29 02:02:00,55.0,52.0,30.19,ESE,117,3.0,-999.0,91,-99.99,,,0.00,,2013-01-29 08:02:00,
2013-01-29 02:11:00,55.0,52.0,30.19,ESE,117,3.0,-999.0,91,-99.99,,,0.00,,2013-01-29 08:11:00,
2013-01-29 02:21:00,55.0,52.0,30.18,East,91,2.0,-999.0,91,-99.99,,,0.00,,2013-01-29 08:21:00,
2013-01-29 02:31:00,55.0,52.0,30.18,ESE,108,2.0,-999.0,91,-99.99,,,0.00,,2013-01-29 08:31:00,
2013-01-29 02:41:00,55.0,52.0,30.18,ESE,108,2.0,-999.0,91,-99.99,,,0.00,,2013-01-29 08:41:00,
2013-01-29 02:52:00,54.0,51.0,30.17,ESE,110,2.0,-999.0,91,-99.99,,,0.00,,2013-01-29 08:52:00,
2013-01-29 03:01:00,54.0,52.0,30.17,ESE,121,3.0,-999.0,92,-99.99,,,0.00,,2013-01-29 09:01:00,
2013-01-29 03:11:00,54.0,52.0,30.17,ESE,121,3.0,-999.0,92,-99.99,,,0.00,,2013-01-29 09:11:00,
2013-01-29 03:21:00,54.0,51.0,30.16,East,93,3.0,-999.0,91,-99.99,,,0.00,,2013-01-29 09:21:00,
2013-01-29 03:31:00,55.0,53.0,30.16,East,93,4.0,-999.0,92,-99.99,,,0.00,,2013-01-29 09:31:00,
2013-01-29 03:42:00,55.0,53.0,30.16,East,93,4.0,-999.0,92,-99.99,,,0.00,,2013-01-29 09:42:00,
2013-01-29 03:51:00,55.0,52.0,30.16,ESE,109,2.0,-999.0,91,-99.99,,,0.00,,2013-01-29 09:51:00,
2013-01-29 04:01:00,56.0,53.0,30.15,ESE,102,4.0,-999.0,90,-99.99,,,0.00,,2013-01-29 10:01:00,
2013-01-29 04:11:00,56.0,53.0,30.15,ESE,102,4.0,-999.0,90,-99.99,,,0.00,,2013-01-29 10:11:00,
2013-01-29 04:21:00,56.0,53.0,30.14,East,93,2.0,-999.0,91,-99.99,,,0.00,,2013-01-29 10:21:00,
2013-01-29 04:32:00,56.0,53.0,30.14,East,98,3.0,-999.0,90,-99.99,,,0.00,,2013-01-29 10:32:00,
2013-01-29 04:41:00,56.0,53.0,30.14,East,98,3.0,-999.0,90,-99.99,,,0.00,,2013-01-29 10:41:00,
2013-01-29 04:52:00,56.0,53.0,30.13,SE,135,3.0,-999.0,90,-99.99,,,0.00,,2013-01-29 10:52:00,
2013-01-29 05:01:00,56.0,53.0,30.12,ESE,104,3.0,-999.0,90,-99.99,,,0.00,,2013-01-29 11:01:00,
2013-01-29 05:11:00,56.0,53.0,30.12,ESE,104,3.0,-999.0,90,-99.99,,,0.00,,2013-01-29 11:11:00,
2013-01-29 05:21:00,56.0,53.0,30.12,ESE,110,3.0,-999.0,90,-99.99,,,0.00,,2013-01-29 11:21:00,
2013-01-29 05:32:00,56.0,53.0,30.11,ESE,113,3.0,-999.0,91,-99.99,,,0.00,,2013-01-29 11:32:00,
2013-01-29 05:42:00,56.0,53.0,30.11,ESE,113,3.0,-999.0,91,-99.99,,,0.00,,2013-01-29 11:42:00,
2013-01-29 05:52:00,56.0,53.0,30.11,ESE,112,4.0,-999.0,91,-99.99,,,0.00,,2013-01-29 11:52:00,
2013-01-29 06:02:00,56.0,53.0,30.11,ESE,121,2.0,-999.0,91,-99.99,,,0.00,,2013-01-29 12:02:00,
2013-01-29 06:12:00,56.0,53.0,30.11,ESE,121,2.0,-999.0,91,-99.99,,,0.00,,2013-01-29 12:12:00,
2013-01-29 06:22:00,56.0,53.0,30.11,ESE,117,3.0,-999.0,91,-99.99,,,0.00,,2013-01-29 12:22:00,
2013-01-29 06:32:00,56.0,53.0,30.11,East,91,1.0,-999.0,91,-99.99,,,0.00,,2013-01-29 12:32:00,
2013-01-29 06:43:00,56.0,53.0,30.11,East,91,1.0,-999.0,91,-99.99,,,0.00,,2013-01-29 12:43:00,
2013-01-29 06:53:00,57.0,54.0,30.11,East,93,2.0,-999.0,91,-99.99,,,0.00,,2013-01-29 12:53:00,
2013-01-29 07:02:00,57.0,55.0,30.13,East,93,0.0,-999.0,92,-99.99,,,0.00,,2013-01-29 13:02:00,
2013-01-29 07:12:00,57.0,55.0,30.13,East,93,0.0,-999.0,92,-99.99,,,0.00,,2013-01-29 13:12:00,
2013-01-29 07:22:00,57.0,55.0,30.13,East,93,1.0,-999.0,92,-99.99,,,0.00,,2013-01-29 13:22:00,
2013-01-29 07:32:00,58.0,57.0,30.13,SSE,158,1.0,-999.0,96,-99.99,,,0.00,,2013-01-29 13:32:00,
2013-01-29 07:42:00,58.0,57.0,30.13,SSE,158,1.0,-999.0,96,-99.99,,,0.00,,2013-01-29 13:42:00,
2013-01-29 07:52:00,60.0,58.0,30.13,SSW,204,1.0,-999.0,94,-99.99,,,0.00,,2013-01-29 13:52:00,
2013-01-29 08:02:00,60.0,58.0,30.13,SE,143,3.0,-999.0,94,-99.99,,,0.00,,2013-01-29 14:02:00,
2013-01-29 08:12:00,60.0,58.0,30.13,SE,144,2.0,-999.0,94,-99.99,,,0.00,,2013-01-29 14:12:00,
2013-01-29 08:22:00,60.0,58.0,30.13,SE,144,2.0,-999.0,94,-99.99,,,0.00,,2013-01-29 14:22:00,
2013-01-29 08:33:00,60.0,58.0,30.13,SE,146,2.0,-999.0,94,-99.99,,,0.00,,2013-01-29 14:33:00,
2013-01-29 08:43:00,60.0,58.0,30.13,SE,146,2.0,-999.0,94,-99.99,,,0.00,,2013-01-29 14:43:00,
2013-01-29 08:53:00,61.0,59.0,30.12,SSE,149,1.0,-999.0,94,-99.99,,,0.00,,2013-01-29 14:53:00,
2013-01-29 09:02:00,60.0,58.0,30.11,East,88,2.0,-999.0,93,-99.99,,,0.00,,2013-01-29 15:02:00,
2013-01-29 09:12:00,60.0,58.0,30.11,East,88,2.0,-999.0,93,-99.99,,,0.00,,2013-01-29 15:12:00,
2013-01-29 09:22:00,60.0,58.0,30.11,East,88,2.0,-999.0,93,-99.99,,,0.00,,2013-01-29 15:22:00,
2013-01-29 09:33:00,60.0,58.0,30.11,ESE,108,3.0,-999.0,93,-99.99,,,0.00,,2013-01-29 15:33:00,
2013-01-29 09:42:00,60.0,58.0,30.11,ESE,108,3.0,-999.0,93,-99.99,,,0.00,,2013-01-29 15:42:00,
2013-01-29 09:53:00,60.0,58.0,30.10,ESE,114,3.0,-999.0,92,-99.99,,,0.00,,2013-01-29 15:53:00,
2013-01-29 10:02:00,60.0,58.0,30.10,ESE,113,3.0,-999.0,92,-99.99,,,0.00,,2013-01-29 16:02:00,
2013-01-29 10:12:00,60.0,58.0,30.10,ESE,113,3.0,-999.0,92,-99.99,,,0.00,,2013-01-29 16:12:00,
2013-01-29 10:22:00,60.0,58.0,30.09,SE,142,3.0,-999.0,92,-99.99,,,0.00,,2013-01-29 16:22:00,
2013-01-29 10:32:00,60.0,58.0,30.09,East,90,4.0,-999.0,92,-99.99,,,0.00,,2013-01-29 16:32:00,
2013-01-29 10:42:00,60.0,58.0,30.09,East,90,4.0,-999.0,92,-99.99,,,0.00,,2013-01-29 16:42:00,
2013-01-29 10:53:00,60.0,58.0,30.09,ESE,104,3.0,-999.0,93,-99.99,,,0.00,,2013-01-29 16:53:00,
2013-01-29 11:03:00,60.0,58.0,30.07,ESE,108,3.0,-999.0,92,-99.99,,,0.00,,2013-01-29 17:03:00,
2013-01-29 11:12:00,60.0,58.0,30.07,ESE,108,3.0,-999.0,92,-99.99,,,0.00,,2013-01-29 17:12:00,
2013-01-29 11:22:00,61.0,59.0,30.07,SE,133,3.0,-999.0,93,-99.99,,,0.00,,2013-01-29 17:22:00,
2013-01-29 11:32:00,61.0,58.0,30.05,ESE,110,3.0,-999.0,91,-99.99,,,0.00,,2013-01-29 17:32:00,
2013-01-29 11:42:00,61.0,58.0,30.05,ESE,110,3.0,-999.0,91,-99.99,,,0.00,,2013-01-29 17:42:00,
2013-01-29 11:52:00,62.0,59.0,30.03,ENE,68,4.0,-999.0,91,-99.99,,,0.00,,2013-01-29 17:52:00,
2013-01-29 12:04:00,62.0,59.0,30.03,East,88,3.0,-999.0,91,-99.99,,,0.00,,2013-01-29 18:04:00,
2013-01-29 12:12:00,62.0,59.0,30.03,East,88,3.0,-999.0,91,-99.99,,,0.00,,2013-01-29 18:12:00,
2013-01-29 12:22:00,63.0,60.0,30.02,ESE,103,1.0,-999.0,91,-99.99,,,0.00,,2013-01-29 18:22:00,
2013-01-29 12:33:00,63.0,60.0,30.01,SE,135,2.0,-999.0,91,-99.99,,,0.00,,2013-01-29 18:33:00,
2013-01-29 12:42:00,63.0,60.0,30.01,SE,135,2.0,-999.0,91,-99.99,,,0.00,,2013-01-29 18:42:00,
2013-01-29 12:52:00,64.0,61.0,29.99,ESE,110,3.0,-999.0,90,-99.99,,,0.00,,2013-01-29 18:52:00,
2013-01-29 13:02:00,64.0,61.0,29.98,ESE,104,4.0,-999.0,89,-99.99,,,0.00,,2013-01-29 19:02:00,
2013-01-29 13:12:00,64.0,61.0,29.98,ESE,104,4.0,-999.0,89,-99.99,,,0.00,,2013-01-29 19:12:00,
2013-01-29 13:22:00,63.0,60.0,29.98,East,96,6.0,-999.0,90,-99.99,,,0.00,,2013-01-29 19:22:00,
2013-01-29 13:32:00,63.0,60.0,29.96,ESE,103,5.0,-999.0,91,-99.99,,,0.00,,2013-01-29 19:32:00,
2013-01-29 13:42:00,63.0,60.0,29.96,ESE,103,5.0,-999.0,91,-99.99,,,0.00,,2013-01-29 19:42:00,
2013-01-29 13:52:00,62.0,60.0,29.96,ESE,103,5.0,-999.0,92,-99.99,,,0.00,,2013-01-29 19:52:00,
2013-01-29 14:02:00,62.0,60.0,29.96,SE,138,4.0,-999.0,93,-99.99,,,0.00,,2013-01-29 20:02:00,
2013-01-29 14:12:00,62.0,60.0,29.96,SE,138,4.0,-999.0,93,-99.99,,,0.00,,2013-01-29 20:12:00,
2013-01-29 14:22:00,62.0,60.0,29.96,ESE,104,4.0,-999.0,94,-99.99,,,0.00,,2013-01-29 20:22:00,
2013-01-29 14:33:00,62.0,61.0,29.95,ESE,119,3.0,-999.0,95,-99.99,,,0.00,,2013-01-29 20:33:00,
2013-01-29 14:42:00,62.0,61.0,29.95,ESE,119,3.0,-999.0,95,-99.99,,,0.00,,2013-01-29 20:42:00,
2013-01-29 14:53:00,62.0,61.0,29.94,ESE,112,3.0,-999.0,95,-99.99,,,0.00,,2013-01-29 20:53:00,
2013-01-29 15:03:00,62.0,61.0,29.93,SE,141,3.0,-999.0,95,-99.99,,,0.00,,2013-01-29 21:03:00,
2013-01-29 15:12:00,62.0,61.0,29.93,SE,141,3.0,-999.0,95,-99.99,,,0.00,,2013-01-29 21:12:00,
2013-01-29 15:22:00,63.0,61.0,29.92,SE,125,3.0,-999.0,94,-99.99,,,0.00,,2013-01-29 21:22:00,
2013-01-29 15:33:00,64.0,62.0,29.92,SE,131,3.0,-999.0,93,-99.99,,,0.00,,2013-01-29 21:33:00,
2013-01-29 15:42:00,64.0,62.0,29.92,SE,131,3.0,-999.0,93,-99.99,,,0.00,,2013-01-29 21:42:00,
2013-01-29 15:53:00,64.0,62.0,29.92,SE,131,3.0,-999.0,93,-99.99,,,0.00,,2013-01-29 21:53:00,
2013-01-29 16:02:00,67.0,64.0,29.90,SSE,158,1.0,-999.0,90,-99.99,,,0.00,,2013-01-29 22:02:00,
2013-01-29 16:12:00,67.0,64.0,29.90,SSE,158,1.0,-999.0,90,-99.99,,,0.00,,2013-01-29 22:12:00,
2013-01-29 16:22:00,67.0,63.0,29.89,ESE,116,2.0,-999.0,87,-99.99,,,0.00,,2013-01-29 22:22:00,
2013-01-29 16:33:00,68.0,64.0,29.88,SSE,162,4.0,-999.0,86,-99.99,,,0.00,,2013-01-29 22:33:00,
2013-01-29 16:42:00,68.0,64.0,29.88,SSE,162,4.0,-999.0,86,-99.99,,,0.00,,2013-01-29 22:42:00,
2013-01-29 16:52:00,68.0,64.0,29.88,SSE,162,4.0,-999.0,86,-99.99,,,0.00,,2013-01-29 22:52:00,
2013-01-29 17:02:00,69.0,64.0,29.88,East,91,3.0,-999.0,84,-99.99,,,0.00,,2013-01-29 23:02:00,
2013-01-29 17:12:00,69.0,64.0,29.88,East,91,3.0,-999.0,84,-99.99,,,0.00,,2013-01-29 23:12:00,
2013-01-29 17:22:00,69.0,64.0,29.88,SE,131,2.0,-999.0,84,-99.99,,,0.00,,2013-01-29 23:22:00,
2013-01-29 17:33:00,69.0,64.0,29.88,ESE,107,3.0,-999.0,84,-99.99,,,0.00,,2013-01-29 23:33:00,
2013-01-29 17:42:00,69.0,64.0,29.88,ESE,107,3.0,-999.0,84,-99.99,,,0.00,,2013-01-29 23:42:00,
2013-01-29 17:53:00,69.0,64.0,29.88,SSE,147,2.0,-999.0,85,-99.99,,,0.00,,2013-01-29 23:53:00,
2013-01-29 18:02:00,69.0,64.0,29.88,ESE,110,2.0,-999.0,85,-99.99,,,0.00,,2013-01-30 00:02:00,
2013-01-29 18:12:00,69.0,64.0,29.88,ESE,110,2.0,-999.0,85,-99.99,,,0.00,,2013-01-30 00:12:00,
2013-01-29 18:22:00,69.0,64.0,29.88,SE,139,3.0,-999.0,85,-99.99,,,0.00,,2013-01-30 00:22:00,
2013-01-29 18:32:00,68.0,63.0,29.87,SSE,154,2.0,-999.0,85,-99.99,,,0.00,,2013-01-30 00:32:00,
2013-01-29 18:42:00,68.0,63.0,29.87,SSE,154,2.0,-999.0,85,-99.99,,,0.00,,2013-01-30 00:42:00,
2013-01-29 18:53:00,68.0,63.0,29.86,ESE,115,2.0,-999.0,85,-99.99,,,0.00,,2013-01-30 00:53:00,
2013-01-29 19:02:00,67.0,63.0,29.87,SSE,148,1.0,-999.0,86,-99.99,,,0.00,,2013-01-30 01:02:00,
2013-01-29 19:12:00,67.0,63.0,29.87,SSE,148,1.0,-999.0,86,-99.99,,,0.00,,2013-01-30 01:12:00,
2013-01-29 19:22:00,67.0,63.0,29.87,SE,139,2.0,-999.0,87,-99.99,,,0.00,,2013-01-30 01:22:00,
2013-01-29 19:32:00,66.0,62.0,29.87,SSE,149,3.0,-999.0,87,-99.99,,,0.00,,2013-01-30 01:32:00,
2013-01-29 19:42:00,66.0,62.0,29.87,SSE,149,3.0,-999.0,87,-99.99,,,0.00,,2013-01-30 01:42:00,
2013-01-29 19:52:00,66.0,62.0,29.86,NE,50,2.0,-999.0,87,-99.99,,,0.00,,2013-01-30 01:52:00,
2013-01-29 20:02:00,66.0,62.0,29.86,ESE,116,3.0,-999.0,87,-99.99,,,0.00,,2013-01-30 02:02:00,
2013-01-29 20:12:00,66.0,62.0,29.86,ESE,116,3.0,-999.0,87,-99.99,,,0.00,,2013-01-30 02:12:00,
2013-01-29 20:22:00,66.0,62.0,29.86,East,94,3.0,-999.0,87,-99.99,,,0.00,,2013-01-30 02:22:00,
2013-01-29 20:33:00,65.0,62.0,29.83,ESE,112,4.0,-999.0,89,-99.99,,,0.00,,2013-01-30 02:33:00,
2013-01-29 20:42:00,65.0,62.0,29.83,ESE,112,4.0,-999.0,89,-99.99,,,0.00,,2013-01-30 02:42:00,
2013-01-29 20:52:00,66.0,63.0,29.84,East,87,3.0,-999.0,89,-99.99,,,0.00,,2013-01-30 02:52:00,
2013-01-29 21:03:00,66.0,63.0,29.84,SE,126,3.0,-999.0,89,-99.99,,,0.00,,2013-01-30 03:03:00,
2013-01-29 21:11:00,66.0,63.0,29.84,SE,126,3.0,-999.0,89,-99.99,,,0.00,,2013-01-30 03:11:00,
2013-01-29 21:22:00,68.0,64.0,29.82,SE,134,3.0,-999.0,86,-99.99,,,0.00,,2013-01-30 03:22:00,
2013-01-29 21:32:00,68.0,64.0,29.81,SSE,162,3.0,-999.0,86,-99.99,,,0.00,,2013-01-30 03:32:00,
2013-01-29 21:42:00,68.0,64.0,29.81,SSE,162,3.0,-999.0,86,-99.99,,,0.00,,2013-01-30 03:42:00,
2013-01-29 21:52:00,68.0,64.0,29.80,SE,140,4.0,-999.0,86,-99.99,,,0.00,,2013-01-30 03:52:00,
2013-01-29 22:02:00,69.0,64.0,29.79,East,100,5.0,-999.0,85,-99.99,,,0.00,,2013-01-30 04:02:00,
2013-01-29 22:11:00,69.0,64.0,29.79,East,100,5.0,-999.0,85,-99.99,,,0.00,,2013-01-30 04:11:00,
2013-01-29 22:22:00,69.0,64.0,29.78,SE,125,4.0,-999.0,84,-99.99,,,0.00,,2013-01-30 04:22:00,
2013-01-29 22:32:00,69.0,64.0,29.79,SE,133,5.0,-999.0,84,-99.99,,,0.00,,2013-01-30 04:32:00,
2013-01-29 22:41:00,69.0,64.0,29.79,SE,133,5.0,-999.0,84,-99.99,,,0.00,,2013-01-30 04:41:00,
2013-01-29 22:52:00,69.0,64.0,29.79,SSW,201,3.0,-999.0,84,-99.99,,,0.00,,2013-01-30 04:52:00,
2013-01-29 23:03:00,69.0,64.0,29.78,South,186,4.0,-999.0,83,-99.99,,,0.00,,2013-01-30 05:03:00,
2013-01-29 23:12:00,70.0,65.0,29.77,South,182,4.0,-999.0,83,-99.99,,,0.00,,2013-01-30 05:12:00,
2013-01-29 23:22:00,70.0,65.0,29.77,South,182,4.0,-999.0,83,-99.99,,,0.00,,2013-01-30 05:22:00,
2013-01-29 23:32:00,70.0,64.0,29.76,SW,231,5.0,-999.0,82,-99.99,,,0.00,,2013-01-30 05:32:00,
2013-01-29 23:43:00,70.0,64.0,29.76,SW,231,5.0,-999.0,82,-99.99,,,0.00,,2013-01-30 05:43:00,
2013-01-29 23:52:00,70.0,64.0,29.73,SW,221,6.0,-999.0,81,-99.99,,,0.00,,2013-01-30 05:52:00,